Flag for U.S.A. Weather past 2 weeks in Pierre, South Dakota, U.S.A.

Now
33 °F

Clear.


Feels Like: 25 °F
Forecast: 30 / 51 °F
Wind: 9 mph from West

Location: Pierre Regional Airport

Current Time: Apr 21, 2015 at 3:44:05 AM

Latest Report: Apr 21, 2015 at 2:53 AM


Visibility: 10 mi

Pressure: 29.81 "Hg

Humidity: 61%

Dew point: 21 °F

Location of PierreLocation

Historic Weather in Pierre — Graph

°F

Pierre temperature yesterday

Maximum temperature yesterday: 56 °F (at 3:53 PM)
Minimum temperature yesterday: 31 °F (at 6:53 AM)
Average temperature yesterday: 44 °F

Past Weeks' High & Low Weather Summary

 TemperatureHumidityPressure
High81 °F (Apr 11, 3:53 PM)100% (Apr 7, 2:53 AM)30.21 "Hg (Apr 7, 2:53 AM)
Low31 °F (Apr 6, 6:53 AM)11% (Apr 14, 4:53 PM)29.44 "Hg (Apr 12, 5:53 AM)
Average49 °F57%29.94 "Hg
* Reported Apr 6 1:53 AM — Apr 21 1:53 AM, Pierre, Weather by CustomWeather, © 2015

Note: Actual official high and low records may vary slightly from our data, if they occured in-between our weather recording intervals... More about our weather records

Advertising

Pierre weather history for previous 24 hours

 ConditionsComfort  
Time TempWeatherWind HumidityBarometerVisibility
1:53 AM
Tue, Apr 21
34 °FClear.9 mph61%29.83 "Hg10 mi
12:53 AM35 °FClear.12 mph59%29.83 "Hg10 mi
11:53 PM
Mon, Apr 20
37 °FClear.9 mph50%29.83 "Hg10 mi
10:53 PM43 °FClear.14 mph35%29.82 "Hg10 mi
9:53 PM45 °FPassing clouds.14 mph34%29.81 "Hg10 mi
8:53 PM48 °FOvercast.14 mph27%29.80 "Hg10 mi
7:53 PM50 °FPartly sunny.17 mph20%29.80 "Hg10 mi
6:53 PM53 °FSunny.25 mph15%29.79 "Hg10 mi
5:53 PM55 °FSunny.29 mph13%29.78 "Hg10 mi
4:53 PM56 °FSunny.32 mph11%29.78 "Hg10 mi
3:53 PM56 °FSunny.29 mph12%29.79 "Hg10 mi
2:53 PM55 °FSunny.30 mph11%29.80 "Hg10 mi
1:53 PM54 °FSunny.30 mph13%29.81 "Hg10 mi
12:53 PM52 °FSunny.32 mph17%29.82 "Hg10 mi
11:53 AM50 °FSunny.29 mph27%29.85 "Hg10 mi
10:53 AM47 °FSunny.26 mph36%29.86 "Hg10 mi
9:53 AM42 °FSunny.22 mph47%29.88 "Hg10 mi
8:53 AM39 °FSunny.20 mph55%29.89 "Hg10 mi
7:53 AM34 °FSunny.15 mph70%29.89 "Hg10 mi
6:53 AM31 °FClear.10 mph79%29.89 "Hg10 mi
5:53 AM32 °FClear.10 mph79%29.89 "Hg10 mi
4:53 AM34 °FClear.15 mph76%29.90 "Hg10 mi
3:53 AM35 °FClear.13 mph75%29.90 "Hg10 mi
Weather by CustomWeather, © 2015

See weather overviewHow to use our weather pages